Kralendijk, Netherlands

8:24 PM AST on December 17, 2017 (GMT -0400)
Kralendijk

Weather History for 78990 - September, 2012

Change the Weather History Date:

Sunday, September 2, 2012

  Actual Average Record
Temperature  
Mean Temperature 86 °F -  
Max Temperature 90 °F 89 °F - ()
Min Temperature 81 °F 82 °F - ()
Cooling Degree Days 20    
Growing Degree Days 36 (Base 50)    
Moisture  
Dew Point 77 °F    
Average Humidity 72    
Maximum Humidity 84    
Minimum Humidity 60    
Precipitation  
Precipitation 0.00 in - - ()
Sea Level Pressure  
Sea Level Pressure 29.92 in    
Wind  
Wind Speed 13 mph ()    
Max Wind Speed 20 mph    
Max Gust Speed -    
Visibility 6.2 miles    
Events      
T = Trace of Precipitation, MM = Missing Value Source: Averaged Metar Reports

Daily Weather History Graph

Daily Weather History Graph

Search for Another Location

Airport or City:

Trip Planner

Search our weather history database for the weather conditions in past years. The results will help you decide how hot, cold, wet, or windy it might be!

Date:

Astronomy

Sep. 02, 2012 Rise Set
Actual Time 6:22 AM AST 6:42 PM AST
Civil Twilight 6:01 AM AST 7:03 PM AST
Nautical Twilight 5:36 AM AST 7:28 PM AST
Astronomical Twilight 5:11 AM AST 7:53 PM AST
Moon 8:06 PM AST (9/2) 7:54 AM AST (9/2)
Length of Visible Light 13h 02m
Length of Day
12h 19m
Waning Gibbous, 95% of the Moon is Illuminated
Sep 2
Waning Gibbous
Sep 8
Last Quarter
Sep 15
New
Sep 22
First Quarter
Sep 29
Full

Hourly Weather History & Observations

Time (AST) Temp. Heat Index Dew Point Humidity Pressure Visibility Wind Dir Wind Speed Gust Speed Precip Events Conditions
6:00 AM 82.4 °F 89.5 °F 75.2 °F 79% 29.92 in - SSE 10.4 mph - N/A   Unknown
8:00 AM 87 °F - 78 °F 67% 29.96 in 25 mi East 16.1 mph - -   Partly Cloudy
8:00 AM 86.0 °F 96.9 °F 77.0 °F 74% 29.95 in 6.2 mi East 16.1 mph - N/A   Scattered Clouds
9:00 AM 86.0 °F 96.9 °F 77.0 °F 74% 29.95 in 6.2 mi East 16.1 mph - N/A   Scattered Clouds
10:00 AM 87.8 °F 99.7 °F 77.0 °F 70% 29.98 in 6.2 mi ESE 16.1 mph - N/A   Scattered Clouds
11:00 AM 88 °F - 77 °F 64% 29.99 in 25 mi East 17.3 mph - -   Partly Cloudy
11:00 AM 87.8 °F 99.7 °F 77.0 °F 70% 29.98 in 6.2 mi East 17.3 mph - N/A   Scattered Clouds
12:00 PM 89.6 °F 102.2 °F 77.0 °F 66% 29.95 in 6.2 mi ESE 19.6 mph - N/A   Scattered Clouds
1:00 PM 89.6 °F 102.2 °F 77.0 °F 66% 29.95 in 6.2 mi ESE 17.3 mph - N/A   Scattered Clouds
2:00 PM 89 °F - 77 °F 60%  in - SSE 10.4 mph - -   Clear
2:00 PM 89.6 °F 102.2 °F 77.0 °F 66% 29.89 in - North - - N/A   Unknown
3:00 PM 89.6 °F 102.2 °F 77.0 °F 66% 29.89 in 6.2 mi East 17.3 mph - N/A   Scattered Clouds
4:00 PM 89.6 °F 102.2 °F 77.0 °F 66% 29.86 in 6.2 mi East 17.3 mph - N/A   Scattered Clouds
5:00 PM 88 °F - 77 °F 64% 29.88 in 22 mi East 17.3 mph - -   Scattered Clouds
5:00 PM 87.8 °F 99.7 °F 77.0 °F 70% 29.86 in 6.2 mi East 17.3 mph - N/A   Partly Cloudy
6:00 PM 86.0 °F 96.9 °F 77.0 °F 74% 29.86 in 6.2 mi East 17.3 mph - N/A   Partly Cloudy
7:00 PM 84.2 °F 94.1 °F 77.0 °F 79% 29.86 in 6.2 mi East 13.8 mph - N/A   Partly Cloudy
8:00 PM 83 °F - 77 °F 78% 29.91 in 25 mi East 16.1 mph - -   Scattered Clouds
8:00 PM 84.2 °F 94.1 °F 77.0 °F 79% 29.89 in 6.2 mi East 16.1 mph - N/A   Partly Cloudy
9:00 PM 82.4 °F 90.9 °F 77.0 °F 84% 29.92 in - North - - N/A   Unknown
10:00 PM 82.4 °F 90.9 °F 77.0 °F 84% 29.95 in - North - - N/A   Unknown
11:00 PM 83 °F - 78 °F 79%  in - South 10.4 mph - -   Clear
11:00 PM 82.4 °F 90.9 °F 77.0 °F 84% 29.95 in - SSE 10.4 mph - N/A   Unknown